• In Österreich
  • Länderverzeichnis
  • Für 7 Tage
  • Wassertemperatur
  • Satellitenkarten
  • Wetterkarte
  • News
  • Widgets
  • user-avatar
    Anmelden

    Stündliche Wetter Brzeziny

    Heute, 18 August, Samstag

    Zeit Temperatur Niederschläge Wind Luftdruck Luftfeuchtigkeit
    00:00 +21°C° 0 mm 3 m/S 750 mmHg 69%
    01:00 +21°C° 0 mm 2 m/S 750 mmHg 73%
    02:00 +20°C° 0 mm 2 m/S 750 mmHg 75%
    03:00 +20°C° 0 mm 2 m/S 750 mmHg 77%
    04:00 +20°C° 0 mm 2 m/S 751 mmHg 78%
    05:00 +21°C° 0 mm 2 m/S 751 mmHg 75%
    06:00 +23°C° 0 mm 1 m/S 751 mmHg 71%
    07:00 +23°C° 0 mm 2 m/S 752 mmHg 67%
    08:00 +25°C° 0 mm 1 m/S 752 mmHg 62%
    09:00 +26°C° 0 mm 1 m/S 752 mmHg 57%
    10:00 +28°C° 0 mm 1 m/S 752 mmHg 53%
    11:00 +29°C° 0 mm 1 m/S 752 mmHg 49%
    12:00 +30°C° 0 mm 1 m/S 752 mmHg 45%
    13:00 +31°C° 0 mm 2 m/S 752 mmHg 41%
    14:00 +31°C° 0 mm 2 m/S 752 mmHg 40%
    15:00 +31°C° 0 mm 2 m/S 752 mmHg 40%
    16:00 +31°C° 0 mm 2 m/S 752 mmHg 39%
    17:00 +30°C° 0 mm 2 m/S 752 mmHg 44%
    18:00 +28°C° 0 mm 2 m/S 752 mmHg 50%
    19:00 +27°C° 0 mm 2 m/S 752 mmHg 55%
    20:00 +26°C° 0,2 mm 2 m/S 752 mmHg 59%
    21:00 +24°C° 0,2 mm 2 m/S 753 mmHg 63%
    22:00 +23°C° 0,2 mm 2 m/S 753 mmHg 67%
    23:00 +23°C° 0,1 mm 2 m/S 753 mmHg 69%

    Morgen, 19 August, Sonntag

    Zeit Temperatur Niederschläge Wind Luftdruck Luftfeuchtigkeit
    00:00 +21°C° 0,1 mm 2 m/S 753 mmHg 71%
    01:00 +21°C° 0,1 mm 2 m/S 753 mmHg 74%
    02:00 +20°C° 0 mm 2 m/S 753 mmHg 75%
    03:00 +21°C° 0 mm 1 m/S 753 mmHg 77%
    04:00 +20°C° 0 mm 1 m/S 753 mmHg 79%
    05:00 +22°C° 0 mm 1 m/S 754 mmHg 75%
    06:00 +23°C° 0 mm 1 m/S 754 mmHg 72%
    07:00 +24°C° 0 mm 1 m/S 754 mmHg 69%
    08:00 +25°C° 0 mm 1 m/S 754 mmHg 62%
    09:00 +27°C° 0 mm 1 m/S 754 mmHg 55%
    10:00 +28°C° 0 mm 2 m/S 754 mmHg 49%
    11:00 +29°C° 0 mm 2 m/S 754 mmHg 47%
    12:00 +29°C° 0 mm 2 m/S 753 mmHg 45%
    13:00 +30°C° 0 mm 1 m/S 753 mmHg 43%
    14:00 +30°C° 0 mm 1 m/S 753 mmHg 44%
    15:00 +30°C° 0 mm 1 m/S 753 mmHg 44%
    16:00 +29°C° 0 mm 1 m/S 752 mmHg 45%
    17:00 +28°C° 0 mm 1 m/S 752 mmHg 49%
    18:00 +27°C° 0 mm 1 m/S 752 mmHg 52%
    19:00 +26°C° 0 mm 1 m/S 752 mmHg 56%
    20:00 +25°C° 0 mm 1 m/S 752 mmHg 58%
    21:00 +24°C° 0 mm 1 m/S 752 mmHg 59%
    22:00 +24°C° 0 mm 1 m/S 752 mmHg 61%
    23:00 +23°C° 0 mm 1 m/S 752 mmHg 62%

    übermorgen, 20 August, Montag

    Zeit Temperatur Niederschläge Wind Luftdruck Luftfeuchtigkeit
    00:00 +23°C° 0 mm 1 m/S 752 mmHg 64%
    01:00 +23°C° 0 mm 2 m/S 752 mmHg 65%
    02:00 +21°C° 0 mm 2 m/S 751 mmHg 66%
    03:00 +21°C° 0 mm 2 m/S 751 mmHg 67%
    04:00 +21°C° 0 mm 2 m/S 751 mmHg 68%
    05:00 +23°C° 0 mm 2 m/S 751 mmHg 67%
    06:00 +24°C° 0 mm 2 m/S 751 mmHg 66%
    07:00 +24°C° 0 mm 3 m/S 751 mmHg 66%
    08:00 +26°C° 0 mm 3 m/S 751 mmHg 61%
    09:00 +28°C° 0 mm 3 m/S 751 mmHg 56%
    10:00 +29°C° 0 mm 3 m/S 750 mmHg 50%
    11:00 +30°C° 0 mm 3 m/S 750 mmHg 47%
    12:00 +31°C° 0 mm 3 m/S 750 mmHg 43%
    13:00 +33°C° 0 mm 4 m/S 749 mmHg 40%
    14:00 +32°C° 0 mm 4 m/S 749 mmHg 41%
    15:00 +32°C° 0 mm 4 m/S 749 mmHg 42%
    16:00 +32°C° 0 mm 4 m/S 749 mmHg 43%
    17:00 +30°C° 0 mm 3 m/S 749 mmHg 47%
    18:00 +28°C° 0 mm 3 m/S 749 mmHg 50%
    19:00 +27°C° 0 mm 2 m/S 749 mmHg 54%
    20:00 +26°C° 0 mm 3 m/S 749 mmHg 56%
    21:00 +25°C° 0 mm 3 m/S 749 mmHg 59%
    22:00 +24°C° 0 mm 3 m/S 750 mmHg 61%
    23:00 +22°C° 0 mm 3 m/S 750 mmHg 65%

    21 August, Dienstag

    Zeit Temperatur Niederschläge Wind Luftdruck Luftfeuchtigkeit
    00:00 +22°C° 0 mm 3 m/S 750 mmHg 69%
    01:00 +21°C° 0 mm 3 m/S 750 mmHg 72%
    02:00 +20°C° 0 mm 3 m/S 750 mmHg 76%
    03:00 +20°C° 0 mm 3 m/S 751 mmHg 79%
    04:00 +19°C° 0 mm 3 m/S 751 mmHg 83%
    05:00 +19°C° 0 mm 4 m/S 752 mmHg 78%
    06:00 +19°C° 0 mm 4 m/S 752 mmHg 72%
    07:00 +20°C° 0 mm 5 m/S 752 mmHg 67%
    08:00 +20°C° 0 mm 5 m/S 753 mmHg 60%
    09:00 +21°C° 0 mm 5 m/S 753 mmHg 54%
    10:00 +22°C° 0 mm 5 m/S 753 mmHg 47%
    11:00 +23°C° 0 mm 5 m/S 753 mmHg 44%
    12:00 +25°C° 0 mm 4 m/S 753 mmHg 40%
    13:00 +26°C° 0 mm 4 m/S 753 mmHg 37%
    14:00 +26°C° 0 mm 4 m/S 753 mmHg 37%
    15:00 +26°C° 0 mm 4 m/S 753 mmHg 37%
    16:00 +26°C° 0 mm 4 m/S 753 mmHg 37%
    17:00 +24°C° 0 mm 3 m/S 753 mmHg 42%
    18:00 +22°C° 0 mm 3 m/S 753 mmHg 46%
    19:00 +20°C° 0 mm 2 m/S 754 mmHg 50%
    20:00 +20°C° 0 mm 2 m/S 754 mmHg 53%
    21:00 +19°C° 0 mm 2 m/S 754 mmHg 55%
    22:00 +19°C° 0 mm 1 m/S 755 mmHg 57%
    23:00 +19°C° 0 mm 1 m/S 755 mmHg 60%

    22 August, Mittwoch

    Zeit Temperatur Niederschläge Wind Luftdruck Luftfeuchtigkeit
    00:00 +18°C° 0 mm 1 m/S 755 mmHg 63%
    01:00 +18°C° 0 mm 1 m/S 755 mmHg 66%
    02:00 +16°C° 0 mm 1 m/S 755 mmHg 68%
    03:00 +16°C° 0 mm 1 m/S 755 mmHg 70%
    04:00 +16°C° 0 mm 1 m/S 755 mmHg 72%
    05:00 +18°C° 0 mm 1 m/S 755 mmHg 69%
    06:00 +19°C° 0 mm 1 m/S 755 mmHg 66%
    07:00 +20°C° 0 mm 1 m/S 755 mmHg 62%
    08:00 +22°C° 0 mm 1 m/S 755 mmHg 56%
    09:00 +23°C° 0 mm 2 m/S 755 mmHg 50%
    10:00 +25°C° 0 mm 2 m/S 755 mmHg 45%
    11:00 +26°C° 0 mm 2 m/S 755 mmHg 42%
    12:00 +27°C° 0 mm 2 m/S 754 mmHg 39%
    13:00 +28°C° 0 mm 2 m/S 754 mmHg 36%
    14:00 +28°C° 0 mm 2 m/S 754 mmHg 36%
    15:00 +28°C° 0 mm 2 m/S 753 mmHg 35%
    16:00 +29°C° 0 mm 2 m/S 753 mmHg 35%
    17:00 +27°C° 0 mm 2 m/S 753 mmHg 40%
    18:00 +25°C° 0 mm 2 m/S 753 mmHg 45%
    19:00 +24°C° 0 mm 2 m/S 753 mmHg 49%
    20:00 +22°C° 0 mm 3 m/S 753 mmHg 52%
    21:00 +21°C° 0 mm 3 m/S 753 mmHg 55%
    22:00 +20°C° 0 mm 3 m/S 753 mmHg 59%
    23:00 +20°C° 0 mm 3 m/S 753 mmHg 62%

    23 August, Donnerstag

    Zeit Temperatur Niederschläge Wind Luftdruck Luftfeuchtigkeit
    00:00 +19°C° 0 mm 3 m/S 753 mmHg 65%
    01:00 +19°C° 0 mm 3 m/S 753 mmHg 68%
    02:00 +18°C° 0 mm 3 m/S 752 mmHg 72%
    03:00 +18°C° 0 mm 3 m/S 752 mmHg 75%
    04:00 +17°C° 0 mm 3 m/S 752 mmHg 79%
    05:00 +18°C° 0 mm 4 m/S 752 mmHg 76%
    06:00 +19°C° 0 mm 4 m/S 751 mmHg 73%
    07:00 +20°C° 0 mm 5 m/S 751 mmHg 70%
    08:00 +22°C° 0 mm 4 m/S 751 mmHg 63%
    09:00 +25°C° 0 mm 4 m/S 751 mmHg 56%
    10:00 +27°C° 0 mm 4 m/S 750 mmHg 50%
    11:00 +28°C° 0 mm 4 m/S 750 mmHg 46%
    12:00 +29°C° 0 mm 3 m/S 749 mmHg 42%
    13:00 +31°C° 0 mm 3 m/S 749 mmHg 38%
    14:00 +31°C° 0 mm 3 m/S 749 mmHg 38%
    15:00 +31°C° 0 mm 3 m/S 748 mmHg 37%
    16:00 +32°C° 0 mm 2 m/S 748 mmHg 37%
    17:00 +30°C° 0 mm 2 m/S 747 mmHg 41%
    18:00 +29°C° 0 mm 2 m/S 747 mmHg 45%
    19:00 +27°C° 0 mm 2 m/S 747 mmHg 50%
    20:00 +26°C° 0 mm 2 m/S 747 mmHg 52%
    21:00 +26°C° 0 mm 3 m/S 747 mmHg 54%
    22:00 +25°C° 0 mm 3 m/S 747 mmHg 56%
    23:00 +24°C° 0 mm 3 m/S 747 mmHg 58%
    Mehr zeigen